When you browse on this site, cookies collect data to enhance your experience and personalize the content and advertising you see.
Visit our Privacy Policy to learn more. By continuing to use the site, you agree to this use of cookies and data.
  • In Deutschland
  • Länderverzeichnis
  • Für 7 Tage
  • Wassertemperatur
  • Satellitenkarten
  • Wetterkarte
  • Widgets
  • user-avatar
    Anmelden

    Stündliche Wetter Sabirabad

    Heute, 19 Dezember, Mittwoch

    Zeit Temperatur Niederschläge Wind Luftdruck Luftfeuchtigkeit
    00:00 +7°C° 0 mm 2 m/S 772 mmHg 83%
    01:00 +7°C° 0 mm 2 m/S 772 mmHg 83%
    02:00 +7°C° 0 mm 2 m/S 772 mmHg 84%
    03:00 +7°C° 0 mm 1 m/S 772 mmHg 84%
    04:00 +7°C° 0 mm 1 m/S 773 mmHg 84%
    05:00 +7°C° 0 mm 1 m/S 773 mmHg 83%
    06:00 +7°C° 0 mm 1 m/S 773 mmHg 83%
    07:00 +7°C° 0 mm 2 m/S 773 mmHg 81%
    08:00 +7°C° 0 mm 2 m/S 773 mmHg 79%
    09:00 +7°C° 0 mm 2 m/S 773 mmHg 77%
    10:00 +8°C° 0 mm 2 m/S 773 mmHg 75%
    11:00 +8°C° 0 mm 2 m/S 773 mmHg 72%
    12:00 +9°C° 0 mm 2 m/S 772 mmHg 69%
    13:00 +9°C° 0 mm 2 m/S 772 mmHg 69%
    14:00 +9°C° 0 mm 2 m/S 772 mmHg 69%
    15:00 +10°C° 0 mm 2 m/S 772 mmHg 69%
    16:00 +9°C° 0 mm 2 m/S 772 mmHg 72%
    17:00 +9°C° 0 mm 2 m/S 772 mmHg 75%
    18:00 +9°C° 0 mm 2 m/S 772 mmHg 78%
    19:00 +9°C° 0.1 mm 2 m/S 772 mmHg 79%
    20:00 +8°C° 0.1 mm 2 m/S 772 mmHg 81%
    21:00 +8°C° 0.1 mm 2 m/S 772 mmHg 82%
    22:00 +8°C° 0.1 mm 2 m/S 772 mmHg 82%
    23:00 +8°C° 0.1 mm 2 m/S 772 mmHg 82%

    Morgen, 20 Dezember, Donnerstag

    Zeit Temperatur Niederschläge Wind Luftdruck Luftfeuchtigkeit
    00:00 +8°C° 0.1 mm 2 m/S 771 mmHg 83%
    01:00 +8°C° 0.1 mm 2 m/S 771 mmHg 82%
    02:00 +8°C° 0.1 mm 2 m/S 771 mmHg 82%
    03:00 +8°C° 0.1 mm 2 m/S 771 mmHg 82%
    04:00 +8°C° 0.2 mm 2 m/S 771 mmHg 81%
    05:00 +8°C° 0.2 mm 2 m/S 771 mmHg 81%
    06:00 +8°C° 0.2 mm 2 m/S 770 mmHg 81%
    07:00 +8°C° 0.3 mm 2 m/S 770 mmHg 80%
    08:00 +8°C° 0.3 mm 2 m/S 770 mmHg 79%
    09:00 +8°C° 0.3 mm 2 m/S 770 mmHg 77%
    10:00 +9°C° 0.2 mm 2 m/S 770 mmHg 76%
    11:00 +9°C° 0.2 mm 2 m/S 769 mmHg 75%
    12:00 +9°C° 0.2 mm 2 m/S 769 mmHg 74%
    13:00 +11°C° 0.1 mm 1 m/S 769 mmHg 74%
    14:00 +11°C° 0.1 mm 1 m/S 768 mmHg 74%
    15:00 +11°C° 0.1 mm 1 m/S 768 mmHg 74%
    16:00 +11°C° 0.1 mm 1 m/S 768 mmHg 77%
    17:00 +10°C° 0.1 mm 1 m/S 768 mmHg 79%
    18:00 +10°C° 0.1 mm 1 m/S 769 mmHg 82%
    19:00 +10°C° 0.3 mm 1 m/S 769 mmHg 83%
    20:00 +10°C° 0.3 mm 1 m/S 769 mmHg 84%
    21:00 +10°C° 0.3 mm 1 m/S 769 mmHg 86%
    22:00 +10°C° 0.7 mm 1 m/S 769 mmHg 86%
    23:00 +10°C° 0.7 mm 1 m/S 769 mmHg 87%

    übermorgen, 21 Dezember, Freitag

    Zeit Temperatur Niederschläge Wind Luftdruck Luftfeuchtigkeit
    00:00 +10°C° 0.7 mm 1 m/S 769 mmHg 88%
    01:00 +9°C° 0.6 mm 2 m/S 769 mmHg 88%
    02:00 +8°C° 0.6 mm 2 m/S 769 mmHg 88%
    03:00 +8°C° 0.6 mm 2 m/S 769 mmHg 88%
    04:00 +8°C° 0.5 mm 2 m/S 769 mmHg 88%
    05:00 +8°C° 0.5 mm 2 m/S 770 mmHg 88%
    06:00 +9°C° 0.5 mm 1 m/S 770 mmHg 87%
    07:00 +8°C° 0.5 mm 2 m/S 770 mmHg 87%
    08:00 +8°C° 0.5 mm 2 m/S 770 mmHg 86%
    09:00 +8°C° 0.5 mm 2 m/S 771 mmHg 85%
    10:00 +8°C° 0.3 mm 2 m/S 771 mmHg 84%
    11:00 +8°C° 0.3 mm 2 m/S 771 mmHg 83%
    12:00 +8°C° 0.3 mm 2 m/S 770 mmHg 82%
    13:00 +9°C° 0.1 mm 2 m/S 770 mmHg 81%
    14:00 +9°C° 0.1 mm 2 m/S 770 mmHg 81%
    15:00 +9°C° 0.1 mm 2 m/S 770 mmHg 80%
    16:00 +8°C° 0 mm 2 m/S 771 mmHg 82%
    17:00 +8°C° 0 mm 2 m/S 771 mmHg 83%
    18:00 +8°C° 0 mm 2 m/S 771 mmHg 85%
    19:00 +8°C° 0 mm 2 m/S 771 mmHg 85%
    20:00 +8°C° 0 mm 2 m/S 771 mmHg 84%
    21:00 +7°C° 0 mm 3 m/S 772 mmHg 84%
    22:00 +7°C° 0 mm 2 m/S 771 mmHg 84%
    23:00 +7°C° 0 mm 2 m/S 771 mmHg 85%

    22 Dezember, Samstag

    Zeit Temperatur Niederschläge Wind Luftdruck Luftfeuchtigkeit
    00:00 +7°C° 0 mm 2 m/S 771 mmHg 85%
    01:00 +7°C° 0 mm 2 m/S 771 mmHg 86%
    02:00 +8°C° 0 mm 1 m/S 770 mmHg 86%
    03:00 +7°C° 0 mm 1 m/S 770 mmHg 87%
    04:00 +7°C° 0 mm 1 m/S 770 mmHg 88%
    05:00 +7°C° 0 mm 1 m/S 770 mmHg 89%
    06:00 +7°C° 0 mm 1 m/S 770 mmHg 90%
    07:00 +7°C° 0 mm 1 m/S 770 mmHg 87%
    08:00 +8°C° 0 mm 1 m/S 770 mmHg 84%
    09:00 +8°C° 0 mm 1 m/S 770 mmHg 81%
    10:00 +9°C° 0 mm 1 m/S 769 mmHg 78%
    11:00 +10°C° 0 mm 1 m/S 769 mmHg 74%
    12:00 +10°C° 0 mm 1 m/S 768 mmHg 71%
    13:00 +10°C° 0 mm 1 m/S 768 mmHg 69%
    14:00 +11°C° 0 mm 1 m/S 767 mmHg 68%
    15:00 +11°C° 0 mm 1 m/S 767 mmHg 67%
    16:00 +10°C° 0 mm 1 m/S 767 mmHg 71%
    17:00 +10°C° 0 mm 1 m/S 767 mmHg 75%
    18:00 +9°C° 0 mm 1 m/S 767 mmHg 79%
    19:00 +9°C° 0 mm 1 m/S 768 mmHg 80%
    20:00 +9°C° 0 mm 1 m/S 768 mmHg 82%
    21:00 +8°C° 0 mm 1 m/S 768 mmHg 83%
    22:00 +8°C° 0 mm 1 m/S 768 mmHg 84%
    23:00 +8°C° 0 mm 1 m/S 768 mmHg 85%

    23 Dezember, Sonntag

    Zeit Temperatur Niederschläge Wind Luftdruck Luftfeuchtigkeit
    00:00 +8°C° 0 mm 1 m/S 768 mmHg 85%
    01:00 +7°C° 0 mm 1 m/S 768 mmHg 86%
    02:00 +7°C° 0 mm 1 m/S 768 mmHg 86%
    03:00 +7°C° 0 mm 1 m/S 768 mmHg 87%
    04:00 +7°C° 0 mm 1 m/S 768 mmHg 87%
    05:00 +6°C° 0 mm 1 m/S 768 mmHg 87%
    06:00 +6°C° 0 mm 1 m/S 768 mmHg 87%
    07:00 +7°C° 0 mm 1 m/S 769 mmHg 83%
    08:00 +8°C° 0 mm 1 m/S 769 mmHg 79%
    09:00 +8°C° 0 mm 0 m/S 769 mmHg 74%
    10:00 +10°C° 0 mm 1 m/S 769 mmHg 69%
    11:00 +10°C° 0 mm 1 m/S 768 mmHg 63%
    12:00 +11°C° 0 mm 1 m/S 768 mmHg 58%
    13:00 +12°C° 0 mm 1 m/S 768 mmHg 55%
    14:00 +12°C° 0 mm 2 m/S 767 mmHg 53%
    15:00 +12°C° 0 mm 2 m/S 767 mmHg 51%
    16:00 +10°C° 0 mm 2 m/S 767 mmHg 55%
    17:00 +9°C° 0 mm 2 m/S 767 mmHg 60%
    18:00 +9°C° 0 mm 2 m/S 767 mmHg 64%
    19:00 +8°C° 0 mm 2 m/S 767 mmHg 66%
    20:00 +8°C° 0 mm 2 m/S 767 mmHg 69%
    21:00 +7°C° 0 mm 2 m/S 767 mmHg 71%
    22:00 +7°C° 0 mm 2 m/S 766 mmHg 73%
    23:00 +7°C° 0 mm 2 m/S 766 mmHg 74%

    24 Dezember, Montag

    Zeit Temperatur Niederschläge Wind Luftdruck Luftfeuchtigkeit
    00:00 +7°C° 0 mm 2 m/S 765 mmHg 75%
    01:00 +6°C° 0 mm 2 m/S 765 mmHg 74%
    02:00 +6°C° 0 mm 2 m/S 764 mmHg 73%
    03:00 +6°C° 0 mm 2 m/S 764 mmHg 72%
    04:00 +5°C° 0 mm 3 m/S 764 mmHg 70%
    05:00 +5°C° 0 mm 3 m/S 763 mmHg 68%
    06:00 +4°C° 0 mm 3 m/S 763 mmHg 65%
    07:00 +5°C° 0 mm 3 m/S 763 mmHg 62%
    08:00 +6°C° 0 mm 4 m/S 763 mmHg 58%
    09:00 +6°C° 0 mm 4 m/S 763 mmHg 54%
    10:00 +8°C° 0 mm 4 m/S 762 mmHg 50%
    11:00 +9°C° 0 mm 5 m/S 762 mmHg 46%
    12:00 +10°C° 0 mm 6 m/S 762 mmHg 43%
    13:00 +10°C° 0 mm 5 m/S 761 mmHg 42%
    14:00 +12°C° 0 mm 5 m/S 761 mmHg 42%
    15:00 +12°C° 0 mm 4 m/S 761 mmHg 42%
    16:00 +11°C° 0 mm 4 m/S 762 mmHg 45%
    17:00 +10°C° 0 mm 4 m/S 762 mmHg 47%
    18:00 +10°C° 0 mm 4 m/S 762 mmHg 50%
    19:00 +10°C° 0 mm 4 m/S 763 mmHg 48%
    20:00 +10°C° 0 mm 4 m/S 763 mmHg 47%
    21:00 +8°C° 0 mm 5 m/S 763 mmHg 46%
    22:00 +8°C° 0 mm 5 m/S 763 mmHg 46%
    23:00 +8°C° 0 mm 5 m/S 764 mmHg 45%
    Mehr zeigen